Location: Faicchio
(41.2833°N, 14.4833°E)
Time: 06:11:36
(UTC+00:00)

CZ-2D R/B - Pass Details

Date: 15 June 2025
Orbit: 789 x 842 km, 98.8° (Epoch: 16 July)

Event Time Altitude Azimuth Distance (km) Brightness Sun altitude
Rises 00:18:06 0° 28° (NNE) 3,379 6.7 -23.1°
Reaches altitude 10° 00:21:04 10° 44° (NE) 2,431 5.5 -22.9°
Maximum altitude 00:25:05 21° 93° (E) 1,761 4.0 -22.6°
Enters shadow 00:27:57 14° 132° (SE) 2,118 4.1 -22.4°
